Showing default

AEROCUBE 18A, 63220

Orbit data source: Space-Track

AEROCUBE 18A, 63220 is a payload satellite owned by AERO (US) in SSO that was launched on Sat, 15 Mar 2025 UTC via an FALCON 9 launch vehicle from the Air Force Western Test Range (AFWTR). Payload-class satellites include a variety of spacecraft equipped with specific instruments for various scientific and technological missions. These include communications satellites like Starlink; space stations such as the ISS; scientific satellites like the Hubble; Earth observation satellites from companies like Planet Labs, Umbra, and HawkEye 360; GPS; miniature CubeSats for education and research; and military/defense satellites.

Loading next visibility...
Identifier
63220, 2025-052L
Orbit
SSO
Country
Flag of USUS
Related business
Manufacturer
AERO
Mission
Operational Defense Technology
Bus & Motor
CUBESAT 6U, Unknown motor
Mass
10 kg wet, 10 kg dry
Launch date (UTC)
2025-03-15 (7 months ago)
Launch vehicle
FALCON 9
Launch site
Air Force Western Test Range (AFWTR)
Object type
Payload
Rocket body
Debris
Shape & HBR
Box + 2 Pan, 14.5 m
Radar Cross Section
0.045 m², Small (<0.1 m²)

Expand to show TLE details & history
Last TLE update: 11 hours ago

TLE from 11 hours ago
0 AEROCUBE 18A
1 63220U 25052L   25298.69981260  .00009403  00000-0  43138-3 0  9992
2 63220  97.4181 190.3844 0002942 203.6045 156.5056 15.20641077 34212
Epoch: 2025-10-25T16:47Z
TLE epoch observation values (Epoch: 2025-10-25T16:47:43.808Z)
Latitude
-0.00002°
Longitude
-95.87474°
Altitude
508.854 km
Speed
7.609 km/s
True Right ascension
12h 41m 32s
True Declination
0° 00' 00"
Sunlit
Object was in daylight at epoch
Visualization orbit readout
Latitude
Unknown
Longitude
Unknown
Altitude
Unknown
Speed
Unknown
Apparent Right ascension
Unknown
Apparent Declination
Unknown
Sunlit
N/A
Visualization observer readout
Local Sidereal Time
23:08:24
Azimuth
Unknown
Elevation
Unknown
Doppler factor
Unknown
Orbital elements
Apogee altitude
502.895 km
Perigee altitude
498.847 km
Semi-major axis
6,879.008 km
Eccentricity
0.00029
Inclination
97.4181°
RAAN
190.3844°
Arg. of periapsis
203.6045°
True anomaly
156.51904°
Mean anomaly
156.5056°
Eccentric anomaly
156.51232°
Mean motion
3.80412 °/min
Orbital period
94.63 mins
BSTAR
0.00043138
Loading maneuver chart data...
Computing Atmospheric mass density...
Loading historical data...
Loading historical data...
Loading historical data...
Loading historical data...
Loading historical data...
Loading historical data...
Loading historical data...

Documentation

Showing up to 5 results
|